Wind_Speed
21 20 20 19 16 13 13 15 16 14 13 13 15 17 18 18 19 17 15 14 12 10 10 9 9 9 10 11 12 12 13 13 12 12 11 11 11 11 11 12 12 11 11 10 10 9 8 7 6
21 21 20 19 16 13 15 17 17 15 13 14 18 21 21 20 18 16 16 14 13 11 11 11 10 11 12 13 13 14 14 15 14 13 13 12 12 12 12 12 13 12 12 11 10 9 9 8 7
21 21 20 19 15 15 17 18 18 15 14 15 19 23 24 21 18 17 15 13 12 11 12 12 11 11 12 14 15 16 16 16 16 16 15 14 13 13 13 13 13 13 12 12 11 10 10 9 7
21 21 20 18 15 17 19 19 18 15 15 18 21 24 25 22 19 16 14 13 13 12 13 13 12 12 13 14 16 17 18 18 18 18 17 16 15 15 14 14 14 13 13 12 12 11 10 9 8
21 20 19 17 16 19 21 20 19 16 17 20 23 26 25 22 19 16 15 15 13 13 13 13 13 13 13 14 16 17 18 19 19 19 19 18 17 16 15 14 14 14 14 13 12 11 11 10 9
21 20 18 18 19 22 24 22 21 18 20 23 25 27 27 23 20 17 15 14 14 14 14 14 14 15 16 15 15 18 19 19 20 20 19 19 18 17 16 15 15 15 14 13 13 12 12 11 10
21 19 18 18 20 24 25 23 21 21 22 25 28 29 28 25 21 17 15 15 15 15 16 16 16 16 17 16 17 18 18 19 20 20 20 19 18 18 17 16 16 15 15 14 13 13 12 12 11
20 19 18 18 22 25 26 24 22 22 24 27 29 29 28 25 23 20 18 17 17 17 17 17 17 17 18 17 17 17 18 19 20 20 20 20 20 19 18 17 16 16 15 15 14 14 13 13 12
18 16 17 20 25 26 25 24 24 25 26 27 28 27 27 26 25 23 21 19 18 19 20 19 19 19 19 19 19 19 19 20 20 21 21 21 21 20 18 18 17 16 16 15 15 15 14 14 13
16 15 19 23 25 25 24 23 22 23 23 24 25 25 26 26 26 25 24 22 20 20 22 21 21 20 20 20 21 21 21 21 21 21 22 22 22 21 20 19 19 18 17 16 16 15 15 15 14
15 17 20 22 23 23 21 21 21 22 23 23 24 25 26 26 26 26 25 24 23 22 24 24 23 23 22 22 22 22 22 23 23 23 23 23 23 23 22 22 21 19 18 18 17 17 16 16 15
17 18 20 20 20 20 19 19 21 22 24 25 26 26 27 27 27 27 27 27 26 26 26 27 26 24 24 24 24 24 24 24 25 25 24 23 24 24 24 23 22 21 20 18 18 18 18 17 17
18 20 21 21 21 20 19 19 21 23 25 26 27 27 28 28 28 28 29 29 27 25 25 27 27 27 27 27 26 26 26 26 26 26 25 25 25 25 25 24 23 22 21 19 19 19 19 19 18
17 18 19 19 19 18 19 18 20 21 24 25 27 27 28 29 29 30 30 31 29 28 28 29 30 28 28 28 29 28 27 28 28 27 27 26 26 26 26 26 25 24 23 21 21 20 20 20 20
15 14 14 14 14 14 16 16 17 19 21 23 25 26 27 29 30 30 30 31 31 31 31 32 31 31 29 29 30 31 30 29 29 28 29 28 27 27 27 27 26 26 25 23 22 22 22 22 21
11 11 10 10 11 12 14 13 15 16 19 20 22 24 26 27 29 30 31 32 32 32 32 32 32 31 30 30 31 32 32 31 30 30 30 29 29 29 28 28 28 28 27 25 24 23 23 23 22
10 9 10 9 9 11 14 14 14 16 18 20 21 24 25 27 28 30 31 32 32 32 32 33 32 31 30 31 32 32 31 31 31 30 30 32 32 31 31 30 30 29 29 28 26 25 24 24 23
10 11 11 9 9 12 14 15 16 18 20 22 23 25 27 28 29 30 31 32 32 33 32 32 32 32 31 31 31 32 30 30 30 29 30 32 33 34 34 33 31 30 29 28 28 26 25 24 24
11 11 11 9 11 14 15 17 19 21 24 25 26 27 27 30 30 30 30 31 32 33 32 31 31 31 30 30 31 32 30 29 27 28 29 30 31 32 31 32 32 32 30 29 28 28 27 27 26
11 11 10 10 12 15 17 19 21 23 26 26 26 27 28 28 29 31 31 31 32 31 31 32 30 29 30 30 30 30 30 29 29 29 29 28 27 28 30 30 31 31 31 30 29 29 29 29 28
10 11 12 14 15 17 21 23 24 25 26 26 27 27 28 27 26 28 30 31 30 30 30 30 29 28 28 29 29 29 29 29 29 27 27 27 27 27 30 30 30 30 30 30 29 29 28 28 28
10 11 13 15 17 18 21 24 24 24 26 27 26 26 25 25 25 26 28 28 29 29 28 27 27 26 27 29 30 30 29 29 27 26 26 26 24 26 26 27 27 29 28 29 29 29 28 29 29
10 11 13 15 16 18 20 23 23 24 24 24 24 23 22 22 23 24 25 26 26 26 25 26 26 26 26 28 28 28 29 28 27 26 25 23 23 24 24 23 24 25 25 26 27 28 28 28 28
10 12 13 14 15 16 17 20 21 21 22 23 21 21 22 23 22 22 23 23 24 24 25 25 25 26 26 27 27 28 28 27 26 25 24 24 23 22 21 22 23 23 23 24 25 26 27 28 28
12 13 13 12 13 14 15 18 18 18 19 19 20 20 21 21 20 20 21 21 21 21 22 23 24 25 25 26 26 27 28 26 25 25 24 23 22 21 20 20 20 21 21 22 23 25 26 27 28
11 12 12 13 14 14 15 18 17 17 18 18 17 17 18 17 19 20 20 20 20 20 20 21 22 23 24 24 25 26 26 25 24 24 23 22 21 21 20 19 20 20 20 21 21 23 25 26 28
11 11 11 14 15 15 16 17 18 17 17 17 17 16 15 16 17 17 18 19 19 19 19 19 21 22 22 21 22 23 23 23 22 22 22 22 22 21 19 20 19 19 19 20 21 22 23 24 25
12 11 12 13 15 16 16 17 18 17 17 16 15 13 13 14 14 15 16 17 17 17 17 18 18 19 20 20 20 20 20 20 21 21 21 22 21 19 19 20 20 19 20 20 20 21 22 24 25
13 13 13 14 15 16 17 17 17 17 17 15 13 11 13 13 14 15 15 15 15 15 15 16 17 17 17 18 18 18 18 19 19 20 20 19 19 18 19 20 20 20 20 20 20 21 22 23 24
13 14 15 15 15 16 18 18 18 16 16 15 14 14 13 14 14 13 14 14 13 14 15 16 16 16 16 17 17 18 18 19 19 19 19 18 18 18 18 19 20 20 19 19 20 21 22 22 23
Wind_Direction
249 248 247 245 240 228 216 212 217 223 234 246 256 263 271 279 287 293 294 292 289 283 270 266 260 250 246 245 245 246 248 249 250 251 254 260 267 276 282 285 288 287 285 281 279 278 270 263 259
248 246 244 241 232 214 206 210 216 223 237 252 260 266 271 277 287 293 290 290 287 279 268 265 263 256 251 251 251 249 248 250 251 252 255 258 263 270 276 282 285 286 284 281 279 278 270 263 258
246 243 241 238 223 202 200 210 219 224 239 253 262 265 270 277 284 289 289 287 286 276 270 269 264 262 257 254 253 251 250 252 252 252 255 258 262 266 271 277 281 282 282 279 277 275 269 262 257
244 241 239 233 213 196 199 208 215 223 237 249 260 265 269 276 283 284 286 287 281 276 271 270 267 263 258 255 254 253 251 253 254 253 254 257 259 263 267 272 275 277 277 275 274 271 267 261 257
240 239 234 224 203 195 197 206 214 219 237 251 259 265 270 274 279 283 286 285 277 275 270 269 267 261 260 258 257 255 253 253 254 254 253 254 257 260 263 268 272 273 272 271 269 268 265 260 256
238 235 228 213 200 195 196 205 214 221 240 252 259 266 271 274 277 278 279 279 277 275 271 271 271 264 258 256 257 255 253 253 253 252 250 252 255 257 260 264 268 269 268 267 266 265 262 257 255
236 230 221 212 203 196 198 205 215 226 241 252 259 266 270 275 277 276 272 269 272 271 269 268 270 262 257 253 252 252 253 253 252 251 250 252 253 256 257 260 262 264 263 263 262 262 259 256 254
233 228 218 210 201 200 204 210 221 231 240 249 258 264 269 274 275 275 270 266 266 265 264 263 265 260 253 250 248 249 250 251 251 251 251 251 252 254 255 257 258 260 261 261 260 259 257 255 252
229 224 214 206 201 205 209 215 224 230 237 245 253 260 265 268 270 270 269 267 263 262 259 257 259 256 251 249 247 248 249 251 251 251 252 251 250 251 253 254 255 257 258 258 258 257 255 253 251
222 209 206 205 206 211 215 220 231 238 241 247 252 257 261 265 267 269 268 265 263 260 255 253 253 252 249 246 248 248 249 250 252 251 252 251 249 250 251 253 253 254 255 255 255 255 254 252 251
212 203 208 210 213 218 224 228 234 241 245 251 255 259 260 262 264 266 266 263 261 258 258 255 250 251 249 246 247 247 248 250 251 251 252 252 251 250 250 251 252 252 252 253 254 254 253 251 251
212 209 213 216 223 229 233 235 239 245 250 254 259 262 262 263 263 263 265 264 262 259 257 259 252 248 247 247 247 247 247 250 251 251 251 252 251 249 249 250 250 249 249 251 252 252 251 250 250
217 214 216 221 228 236 243 244 246 248 253 256 259 260 261 263 263 264 265 266 266 262 261 258 253 249 246 244 246 247 247 248 251 250 251 252 251 249 249 249 249 248 248 248 250 251 250 250 250
227 225 226 230 236 243 248 250 252 252 254 255 257 258 259 261 262 264 265 266 266 264 261 257 253 252 248 243 243 246 246 247 249 250 250 249 248 249 250 249 249 248 248 247 248 249 250 249 250
233 234 233 236 242 246 251 256 259 259 258 256 256 257 256 258 261 263 266 266 266 264 263 256 254 251 249 247 247 246 245 246 246 249 249 248 248 248 248 249 249 248 247 245 246 248 249 248 249
233 231 223 232 245 253 257 258 263 263 263 262 259 259 259 260 263 266 267 267 266 265 264 260 255 251 248 249 248 248 247 247 248 249 248 248 247 247 247 246 246 246 244 243 245 247 248 247 249
220 214 213 226 246 257 265 267 273 276 274 272 268 266 265 263 263 264 267 268 268 266 263 261 258 254 252 249 249 248 246 248 250 250 248 248 247 246 245 243 242 244 243 243 245 246 247 247 249
213 217 221 235 253 260 267 273 281 285 283 282 280 276 272 268 266 265 266 268 268 266 264 261 263 257 252 247 250 250 249 252 250 249 246 246 244 243 243 241 242 244 243 243 243 242 245 247 250
223 231 238 251 268 269 273 278 282 283 282 281 282 282 277 273 271 269 268 267 268 267 264 262 263 256 254 251 251 252 250 252 252 251 250 247 246 243 241 239 241 243 242 242 240 240 244 246 248
238 251 256 252 262 267 268 274 279 281 281 280 281 280 277 279 272 269 268 267 267 267 265 262 264 259 254 253 252 250 252 255 255 254 252 248 247 241 240 240 240 241 243 243 243 243 242 245 248
254 265 265 256 255 262 266 268 272 276 279 282 283 285 281 277 273 269 269 267 268 267 265 263 263 260 256 255 254 251 251 254 253 255 252 249 249 244 241 243 240 244 242 241 242 243 240 243 247
267 269 269 267 262 262 265 269 271 275 277 280 282 284 283 277 273 272 271 269 268 269 268 264 263 258 256 255 255 253 251 255 255 256 255 249 249 247 242 241 241 238 238 240 241 243 242 244 248
274 275 276 276 274 271 270 275 277 277 278 281 285 284 283 278 275 273 271 269 267 267 267 266 264 258 256 254 255 253 253 255 258 256 255 253 251 248 243 243 239 237 239 240 241 242 244 247 251
269 274 280 283 284 282 283 284 285 286 285 284 287 285 283 277 274 272 272 272 271 270 269 266 264 262 259 257 256 255 253 255 255 255 252 252 250 247 244 242 240 239 240 243 242 243 248 249 253
261 274 282 288 291 295 296 294 295 293 292 293 293 289 288 280 271 270 272 274 275 274 271 266 263 261 260 259 259 257 255 255 255 255 253 249 249 247 246 243 241 242 243 243 243 245 249 251 253
265 276 286 298 302 305 304 304 305 303 300 297 291 292 289 280 276 275 276 276 275 273 272 267 264 261 259 259 260 258 256 256 253 249 249 249 252 250 244 241 240 241 246 250 252 252 253 253 255
270 280 290 296 303 309 313 313 314 312 312 304 297 296 293 285 281 280 278 278 275 269 267 266 264 260 260 260 258 257 256 253 250 249 249 246 247 246 242 243 244 248 252 254 254 255 256 257 259
276 281 286 292 302 310 314 319 323 320 321 316 308 303 301 294 288 287 285 280 275 268 266 263 262 260 259 260 257 256 252 250 250 251 251 249 250 247 247 247 251 255 255 254 257 261 260 260 262
276 279 284 290 298 306 315 323 328 326 325 325 319 310 306 297 294 292 288 285 278 271 268 265 262 263 261 258 253 253 252 252 253 254 254 251 251 253 250 249 251 252 253 254 257 259 261 262 265
276 278 281 287 297 304 312 320 326 327 327 325 322 315 310 305 299 295 294 289 282 276 270 266 265 264 262 257 252 251 253 251 250 252 252 250 251 252 251 250 251 253 254 255 256 258 263 265 267
Height
5877 5878 5879 5881 5884 5886 5886 5886 5886 5886 5886 5887 5887 5887 5887 5889 5890 5893 5891 5890 5891 5891 5891 5891 5892 5893 5894 5895 5896 5897 5898 5899 5900 5901 5902 5902 5903 5903 5903 5903 5903 5903 5902 5902 5901 5901 5901 5900 5900
5873 5874 5876 5878 5880 5882 5883 5882 5883 5883 5883 5884 5884 5884 5884 5886 5887 5888 5888 5888 5888 5888 5889 5889 5890 5891 5892 5893 5894 5896 5897 5898 5899 5899 5900 5901 5901 5902 5902 5902 5902 5902 5901 5901 5900 5900 5900 5899 5899
5868 5869 5872 5874 5877 5879 5880 5879 5879 5879 5881 5882 5881 5881 5881 5883 5885 5886 5886 5886 5887 5887 5887 5887 5887 5888 5889 5891 5892 5893 5895 5896 5897 5898 5899 5899 5900 5900 5900 5900 5900 5900 5900 5900 5899 5899 5898 5898 5898
5864 5866 5868 5871 5873 5875 5876 5876 5875 5875 5876 5877 5878 5877 5878 5880 5882 5883 5883 5884 5884 5885 5885 5885 5885 5885 5887 5888 5889 5891 5892 5894 5895 5896 5897 5897 5898 5898 5899 5899 5899 5899 5898 5898 5898 5897 5897 5897 5897
5859 5861 5864 5866 5869 5871 5872 5871 5871 5871 5872 5873 5874 5874 5874 5877 5879 5880 5880 5880 5881 5881 5882 5882 5882 5883 5884 5885 5886 5888 5889 5891 5892 5893 5894 5895 5895 5896 5897 5897 5897 5897 5897 5897 5896 5896 5896 5896 5896
5855 5857 5860 5861 5864 5865 5867 5867 5866 5867 5869 5870 5870 5870 5871 5873 5876 5877 5877 5877 5877 5878 5878 5879 5879 5880 5881 5882 5883 5884 5886 5887 5888 5889 5891 5892 5893 5893 5894 5894 5895 5895 5895 5895 5895 5895 5894 5894 5895
5851 5852 5855 5858 5859 5861 5862 5862 5864 5865 5866 5867 5867 5867 5867 5869 5871 5873 5874 5874 5873 5874 5875 5876 5877 5877 5878 5878 5879 5881 5882 5883 5884 5886 5887 5888 5889 5890 5891 5891 5892 5893 5893 5893 5893 5893 5893 5893 5893
5845 5849 5851 5853 5855 5855 5856 5857 5860 5862 5863 5865 5864 5864 5864 5866 5866 5868 5869 5870 5870 5871 5872 5872 5873 5873 5874 5875 5876 5877 5878 5879 5881 5882 5883 5884 5885 5886 5887 5888 5889 5890 5890 5890 5890 5890 5890 5891 5891
5841 5846 5848 5849 5849 5850 5851 5853 5855 5857 5859 5860 5861 5861 5862 5862 5862 5863 5865 5866 5867 5867 5867 5868 5869 5869 5870 5871 5872 5873 5874 5875 5877 5878 5879 5880 5882 5883 5883 5884 5886 5886 5887 5887 5888 5888 5888 5888 5889
5838 5842 5843 5844 5845 5846 5847 5849 5851 5853 5855 5856 5857 5857 5857 5857 5858 5858 5860 5861 5862 5863 5863 5863 5864 5864 5865 5866 5868 5869 5870 5871 5872 5873 5875 5876 5877 5878 5879 5880 5882 5883 5883 5884 5884 5885 5885 5886 5886
5835 5838 5839 5840 5841 5843 5844 5846 5847 5849 5850 5851 5852 5852 5852 5853 5853 5853 5854 5856 5857 5858 5858 5858 5859 5860 5861 5862 5863 5864 5866 5867 5868 5869 5870 5871 5873 5874 5875 5876 5877 5878 5879 5880 5881 5882 5882 5883 5883
5832 5834 5835 5837 5838 5839 5841 5842 5843 5844 5845 5846 5846 5846 5846 5847 5847 5848 5848 5849 5851 5853 5854 5853 5854 5855 5856 5857 5858 5859 5861 5862 5863 5864 5865 5866 5868 5869 5870 5871 5873 5874 5875 5876 5877 5878 5878 5879 5880
5828 5830 5831 5832 5834 5835 5837 5838 5839 5840 5840 5840 5841 5841 5841 5841 5841 5842 5842 5843 5845 5847 5848 5848 5848 5849 5850 5851 5853 5854 5855 5856 5857 5858 5859 5861 5862 5864 5865 5866 5867 5869 5870 5872 5873 5874 5874 5875 5876
5825 5827 5828 5829 5830 5831 5832 5834 5834 5834 5835 5835 5835 5835 5835 5835 5835 5836 5836 5837 5839 5840 5841 5841 5842 5843 5844 5846 5847 5848 5849 5850 5851 5852 5854 5855 5857 5858 5859 5861 5862 5864 5865 5867 5868 5869 5870 5871 5872
5822 5824 5825 5826 5826 5827 5828 5829 5828 5828 5829 5829 5829 5829 5830 5829 5829 5829 5830 5830 5832 5833 5833 5833 5835 5836 5837 5838 5840 5841 5842 5843 5844 5846 5848 5849 5851 5852 5854 5855 5857 5858 5860 5861 5863 5864 5865 5866 5868
5819 5821 5822 5822 5822 5822 5824 5824 5823 5823 5823 5823 5823 5823 5824 5824 5824 5824 5824 5824 5824 5825 5826 5825 5827 5828 5830 5832 5833 5834 5835 5836 5838 5839 5841 5842 5844 5846 5848 5849 5851 5852 5854 5856 5857 5859 5860 5861 5863
5816 5817 5818 5819 5819 5819 5819 5818 5818 5818 5818 5818 5818 5818 5818 5818 5818 5817 5817 5817 5817 5818 5819 5820 5820 5821 5822 5825 5826 5827 5828 5830 5831 5832 5833 5835 5837 5839 5841 5843 5845 5846 5848 5850 5851 5853 5855 5856 5858
5813 5814 5814 5815 5815 5815 5814 5813 5813 5814 5813 5813 5813 5813 5812 5811 5811 5811 5810 5810 5811 5810 5811 5812 5813 5813 5816 5817 5819 5820 5822 5823 5824 5825 5825 5827 5829 5831 5833 5836 5838 5840 5843 5844 5846 5848 5849 5851 5853
5809 5810 5811 5812 5811 5810 5809 5809 5810 5809 5809 5808 5808 5807 5806 5805 5804 5804 5803 5803 5803 5803 5804 5805 5806 5805 5808 5811 5813 5814 5814 5815 5817 5818 5818 5820 5821 5823 5825 5828 5831 5834 5836 5838 5840 5842 5843 5845 5847
5806 5807 5808 5809 5808 5807 5806 5806 5806 5805 5804 5803 5802 5801 5800 5798 5796 5796 5796 5796 5796 5796 5797 5797 5798 5799 5801 5803 5804 5806 5808 5809 5810 5811 5812 5814 5815 5816 5817 5820 5823 5826 5829 5831 5833 5835 5837 5839 5841
5803 5804 5804 5804 5804 5803 5803 5802 5801 5800 5798 5797 5796 5795 5793 5792 5790 5789 5789 5790 5790 5790 5790 5791 5792 5793 5795 5797 5797 5799 5801 5803 5804 5805 5807 5808 5809 5810 5812 5814 5816 5819 5821 5824 5827 5828 5830 5832 5834
5800 5801 5800 5800 5800 5799 5799 5797 5796 5794 5792 5790 5789 5787 5786 5785 5784 5783 5783 5783 5783 5783 5784 5785 5786 5787 5789 5790 5792 5793 5795 5797 5798 5799 5800 5802 5802 5804 5806 5808 5810 5813 5815 5818 5820 5822 5824 5826 5828
5797 5797 5797 5796 5795 5794 5793 5792 5791 5789 5787 5785 5783 5781 5780 5779 5778 5778 5777 5777 5777 5777 5777 5778 5780 5781 5782 5784 5785 5787 5789 5791 5793 5794 5794 5796 5797 5798 5800 5802 5804 5806 5809 5811 5813 5816 5817 5819 5821
5793 5794 5793 5792 5791 5791 5789 5787 5786 5784 5782 5780 5778 5776 5774 5773 5772 5772 5771 5771 5771 5771 5771 5772 5773 5775 5776 5777 5779 5781 5782 5785 5787 5788 5789 5791 5793 5793 5794 5795 5798 5801 5803 5805 5807 5809 5811 5812 5814
5790 5790 5790 5789 5788 5787 5785 5782 5781 5779 5777 5775 5773 5771 5769 5767 5767 5767 5766 5765 5765 5765 5765 5766 5768 5769 5771 5772 5773 5775 5776 5779 5781 5783 5784 5785 5787 5787 5788 5790 5792 5795 5797 5799 5800 5802 5804 5805 5807
5787 5787 5787 5786 5784 5783 5781 5778 5778 5774 5772 5769 5768 5766 5765 5763 5763 5762 5761 5761 5760 5760 5760 5761 5763 5764 5765 5766 5767 5769 5771 5773 5775 5776 5778 5780 5781 5782 5783 5786 5788 5790 5791 5793 5794 5796 5798 5799 5800
5784 5784 5783 5782 5781 5779 5777 5775 5773 5771 5768 5765 5763 5762 5761 5760 5759 5758 5756 5756 5755 5755 5756 5757 5757 5758 5759 5761 5762 5763 5765 5767 5769 5770 5772 5774 5776 5777 5778 5781 5782 5784 5785 5787 5788 5789 5790 5791 5792
5782 5781 5780 5779 5777 5776 5774 5772 5770 5767 5764 5762 5759 5758 5757 5756 5754 5753 5752 5751 5750 5750 5751 5751 5752 5754 5754 5756 5757 5758 5760 5762 5764 5765 5766 5768 5769 5771 5773 5775 5776 5778 5779 5781 5782 5783 5784 5785 5785
5779 5778 5777 5776 5775 5773 5770 5771 5767 5763 5760 5758 5756 5755 5753 5751 5750 5749 5747 5746 5746 5745 5746 5747 5747 5748 5749 5750 5751 5753 5755 5757 5758 5760 5761 5762 5764 5766 5768 5769 5771 5772 5774 5775 5776 5777 5778 5778 5779
5775 5775 5774 5774 5772 5770 5768 5769 5763 5760 5758 5755 5753 5751 5749 5748 5746 5745 5743 5742 5741 5741 5741 5741 5742 5742 5743 5745 5746 5748 5749 5752 5753 5754 5756 5757 5759 5760 5762 5763 5765 5766 5768 5769 5770 5771 5772 5772 5772